This is the latest recevied weather packets stored in our database for station/object 9W2SSS-1. If no packets are shown the sender has not sent any weather packets the latest 10 day(s).
| Time | Temp. | Humidity | Pressure | Rain* | Wind** | Luminosity | Snow |
|---|---|---|---|---|---|---|---|
| 1777748601 | 28.33° C | 63% | 1007.6 hPa | - | - | - | - |
| 1777747401 | 28.89° C | 61% | 1007.6 hPa | - | - | - | - |
| 1777746201 | 28.89° C | 56% | 1007.8 hPa | - | - | - | - |
| 1777745001 | 28.89° C | 61% | 1008.1 hPa | - | - | - | - |
| 1777743801 | 29.44° C | 64% | 1008.3 hPa | - | - | - | - |
| 1777742600 | 30° C | 66% | 1008.4 hPa | - | - | - | - |
| 1777741400 | 30° C | 69% | 1008.6 hPa | - | - | - | - |
| 1777740200 | 30° C | 69% | 1008.9 hPa | - | - | - | - |
| 1777739000 | 30° C | 68% | 1009.3 hPa | - | - | - | - |
| 1777737800 | 30° C | 65% | 1009.2 hPa | - | - | - | - |
| 1777736600 | 30.56° C | 65% | 1009.4 hPa | - | - | - | - |
| 1777735399 | 30.56° C | 67% | 1009.4 hPa | - | - | - | - |
| 1777734199 | 30.56° C | 66% | 1009.4 hPa | - | - | - | - |
| 1777732999 | 31.11° C | 66% | 1009.3 hPa | - | - | - | - |
| 1777731799 | 31.11° C | 66% | 1009.1 hPa | - | - | - | - |
| 1777730599 | 31.11° C | 63% | 1008.7 hPa | - | - | - | - |
| 1777729399 | 31.11° C | 65% | 1008.7 hPa | - | - | - | - |
| 1777728199 | 31.11° C | 65% | 1008.3 hPa | - | - | - | - |
| 1777726999 | 31.67° C | 64% | 1008 hPa | - | - | - | - |
| 1777725799 | 31.67° C | 65% | 1007.5 hPa | - | - | - | - |
| 1777724598 | 31.67° C | 65% | 1007.2 hPa | - | - | - | - |
| 1777723398 | 31.67° C | 65% | 1006.8 hPa | - | - | - | - |
| 1777722198 | 31.67° C | 64% | 1006.5 hPa | - | - | - | - |
| 1777720998 | 31.67° C | 63% | 1006.3 hPa | - | - | - | - |
| 1777719798 | 32.22° C | 61% | 1005.9 hPa | - | - | - | - |
* Rain since midnight (hover to see other rain measurements)
** Current wind speed in m/s (hover to see current wind gust speed)